Location: Saint Louis
(38.6272°N, 90.1978°W)
Time: 04:44:30
(UTC-05:00)

Tiangong 1 - Visible Passes

Search period start: 02 April 2015 00:00
Search period end: 12 April 2015 00:00
Orbit: 336 x 352 km, 42.8° (Epoch: 02 April)

Date Brightness Start Highest point End Pass type
(mag) Time Alt. Az. Time Alt. Az. Time Alt. Az.
02 Apr 2.5 21:13:55 10° W 21:15:55 31° WSW 21:15:55 31° WSW visible
03 Apr 0.8 20:01:06 10° WNW 20:04:03 89° ENE 20:06:40 12° ESE visible
03 Apr 4.1 21:37:47 10° WSW 21:38:03 11° WSW 21:38:03 11° WSW visible
04 Apr 2.1 20:24:11 10° W 20:26:55 35° SSW 20:28:43 17° SSE visible
05 Apr 3.5 20:47:56 10° WSW 20:49:30 13° SW 20:50:43 11° S visible
07 Apr 3.7 19:57:36 10° WSW 19:58:51 12° SW 20:00:01 10° SSW visible
